• In Germany
  • List of Countries
  • For 7 days
  • Water Temperature
  • Satellite Maps
  • Weather Map
  • Weather Widgets
  • user-avatar
    Login

    Hourly Weather Lezhe

    Today, 23 March, Thursday

    Time Temperature Precipitation Wind Pressure Humidity
    00:00 +11°C° 0 mm 0 mps 736 mmHg 88%
    01:00 +10°C° 0 mm 0 mps 737 mmHg 87%
    02:00 +10°C° 0 mm 0 mps 737 mmHg 85%
    03:00 +10°C° 0 mm 0 mps 737 mmHg 84%
    04:00 +10°C° 0 mm 0 mps 737 mmHg 83%
    05:00 +11°C° 0 mm 0 mps 737 mmHg 79%
    06:00 +12°C° 0 mm 0 mps 737 mmHg 76%
    07:00 +13°C° 0 mm 0 mps 737 mmHg 72%
    08:00 +16°C° 0 mm 0 mps 738 mmHg 64%
    09:00 +18°C° 0 mm 0 mps 738 mmHg 57%
    10:00 +21°C° 0 mm 0 mps 738 mmHg 49%
    11:00 +23°C° 0.1 mm 1 mps 738 mmHg 48%
    12:00 +23°C° 0.1 mm 1 mps 738 mmHg 48%
    13:00 +24°C° 0.1 mm 2 mps 738 mmHg 47%
    14:00 +23°C° 0.1 mm 2 mps 738 mmHg 50%
    15:00 +21°C° 0.1 mm 2 mps 738 mmHg 54%
    16:00 +22°C° 0.1 mm 1 mps 738 mmHg 57%
    17:00 +19°C° 0 mm 1 mps 738 mmHg 65%
    18:00 +16°C° 0 mm 1 mps 739 mmHg 72%
    19:00 +13°C° 0 mm 0 mps 739 mmHg 80%
    20:00 +13°C° 0 mm 0 mps 739 mmHg 80%
    21:00 +12°C° 0 mm 0 mps 739 mmHg 81%
    22:00 +12°C° 0 mm 0 mps 740 mmHg 82%
    23:00 +11°C° 0 mm 0 mps 740 mmHg 82%

    Tomorrow, 24 March, Friday

    Time Temperature Precipitation Wind Pressure Humidity
    00:00 +11°C° 0 mm 0 mps 740 mmHg 82%
    01:00 +10°C° 0 mm 0 mps 740 mmHg 82%
    02:00 +10°C° 0 mm 0 mps 740 mmHg 82%
    03:00 +10°C° 0 mm 0 mps 740 mmHg 82%
    04:00 +9°C° 0 mm 0 mps 740 mmHg 81%
    05:00 +11°C° 0 mm 0 mps 740 mmHg 78%
    06:00 +13°C° 0 mm 1 mps 741 mmHg 74%
    07:00 +14°C° 0 mm 1 mps 741 mmHg 71%
    08:00 +18°C° 0 mm 1 mps 741 mmHg 62%
    09:00 +20°C° 0 mm 1 mps 741 mmHg 54%
    10:00 +23°C° 0 mm 1 mps 741 mmHg 45%
    11:00 +23°C° 0 mm 1 mps 741 mmHg 43%
    12:00 +24°C° 0 mm 2 mps 741 mmHg 42%
    13:00 +25°C° 0 mm 2 mps 741 mmHg 40%
    14:00 +24°C° 0 mm 2 mps 741 mmHg 43%
    15:00 +23°C° 0 mm 2 mps 740 mmHg 47%
    16:00 +23°C° 0 mm 2 mps 740 mmHg 50%
    17:00 +19°C° 0 mm 2 mps 740 mmHg 57%
    18:00 +17°C° 0 mm 2 mps 740 mmHg 65%
    19:00 +15°C° 0 mm 1 mps 740 mmHg 72%
    20:00 +14°C° 0 mm 1 mps 740 mmHg 71%
    21:00 +14°C° 0 mm 1 mps 741 mmHg 70%
    22:00 +14°C° 0 mm 1 mps 741 mmHg 68%
    23:00 +14°C° 0 mm 1 mps 741 mmHg 69%

    Day after tomorrow, 25 March, Saturday

    Time Temperature Precipitation Wind Pressure Humidity
    00:00 +14°C° 0 mm 1 mps 741 mmHg 70%
    01:00 +14°C° 0 mm 1 mps 741 mmHg 70%
    02:00 +13°C° 0 mm 1 mps 741 mmHg 72%
    03:00 +13°C° 0 mm 1 mps 741 mmHg 74%
    04:00 +13°C° 0 mm 1 mps 740 mmHg 77%
    05:00 +14°C° 0 mm 1 mps 740 mmHg 77%
    06:00 +14°C° 0 mm 1 mps 740 mmHg 77%
    07:00 +15°C° 0 mm 1 mps 741 mmHg 77%
    08:00 +18°C° 0 mm 1 mps 741 mmHg 69%
    09:00 +20°C° 0 mm 1 mps 741 mmHg 62%
    10:00 +22°C° 0 mm 1 mps 741 mmHg 54%
    11:00 +23°C° 0.2 mm 1 mps 741 mmHg 54%
    12:00 +23°C° 0.2 mm 2 mps 740 mmHg 53%
    13:00 +23°C° 0.2 mm 2 mps 740 mmHg 52%
    14:00 +23°C° 0.2 mm 2 mps 740 mmHg 55%
    15:00 +21°C° 0.2 mm 2 mps 739 mmHg 58%
    16:00 +20°C° 0.2 mm 2 mps 739 mmHg 62%
    17:00 +18°C° 0.1 mm 2 mps 739 mmHg 71%
    18:00 +16°C° 0.1 mm 1 mps 739 mmHg 80%
    19:00 +14°C° 0.1 mm 1 mps 739 mmHg 89%
    20:00 +13°C° 0 mm 1 mps 739 mmHg 90%
    21:00 +13°C° 0 mm 1 mps 739 mmHg 91%
    22:00 +12°C° 0 mm 0 mps 739 mmHg 91%
    23:00 +12°C° 0 mm 1 mps 739 mmHg 92%

    26 March, Sunday

    Time Temperature Precipitation Wind Pressure Humidity
    00:00 +12°C° 0 mm 1 mps 738 mmHg 93%
    01:00 +12°C° 0 mm 1 mps 738 mmHg 94%
    02:00 +11°C° 0 mm 1 mps 738 mmHg 94%
    03:00 +11°C° 0 mm 1 mps 737 mmHg 94%
    04:00 +10°C° 0 mm 1 mps 737 mmHg 94%
    05:00 +11°C° 0 mm 1 mps 737 mmHg 90%
    06:00 +12°C° 0 mm 2 mps 737 mmHg 86%
    07:00 +13°C° 0 mm 2 mps 736 mmHg 81%
    08:00 +15°C° 0 mm 2 mps 736 mmHg 75%
    09:00 +16°C° 0 mm 2 mps 736 mmHg 69%
    10:00 +18°C° 0 mm 3 mps 736 mmHg 62%
    11:00 +18°C° 0.1 mm 3 mps 735 mmHg 64%
    12:00 +18°C° 0.1 mm 3 mps 734 mmHg 65%
    13:00 +17°C° 0.1 mm 3 mps 734 mmHg 67%
    14:00 +17°C° 0.2 mm 3 mps 733 mmHg 68%
    15:00 +17°C° 0.2 mm 3 mps 733 mmHg 69%
    16:00 +16°C° 0.2 mm 3 mps 733 mmHg 70%
    17:00 +14°C° 0.1 mm 3 mps 733 mmHg 77%
    18:00 +13°C° 0.1 mm 2 mps 733 mmHg 85%
    19:00 +12°C° 0.1 mm 2 mps 733 mmHg 92%
    20:00 +12°C° 0.1 mm 2 mps 733 mmHg 93%
    21:00 +12°C° 0.1 mm 2 mps 733 mmHg 93%
    22:00 +11°C° 0.1 mm 1 mps 734 mmHg 94%
    23:00 +11°C° 0.1 mm 1 mps 734 mmHg 94%

    27 March, Monday

    Time Temperature Precipitation Wind Pressure Humidity
    00:00 +11°C° 0.1 mm 1 mps 734 mmHg 94%
    01:00 +10°C° 0.1 mm 1 mps 734 mmHg 94%
    02:00 +10°C° 0 mm 1 mps 734 mmHg 93%
    03:00 +10°C° 0 mm 1 mps 734 mmHg 93%
    04:00 +9°C° 0 mm 1 mps 734 mmHg 92%
    05:00 +10°C° 0 mm 1 mps 734 mmHg 88%
    06:00 +11°C° 0 mm 1 mps 735 mmHg 84%
    07:00 +12°C° 0 mm 1 mps 735 mmHg 79%
    08:00 +13°C° 0 mm 1 mps 735 mmHg 71%
    09:00 +15°C° 0 mm 1 mps 735 mmHg 62%
    10:00 +18°C° 0 mm 1 mps 735 mmHg 53%
    11:00 +17°C° 0.1 mm 2 mps 735 mmHg 53%
    12:00 +17°C° 0.1 mm 2 mps 735 mmHg 53%
    13:00 +17°C° 0.1 mm 2 mps 735 mmHg 52%
    14:00 +17°C° 0.1 mm 2 mps 735 mmHg 55%
    15:00 +16°C° 0.1 mm 2 mps 735 mmHg 58%
    16:00 +16°C° 0.1 mm 2 mps 735 mmHg 61%
    17:00 +14°C° 0 mm 1 mps 735 mmHg 69%
    18:00 +12°C° 0 mm 1 mps 735 mmHg 77%
    19:00 +10°C° 0 mm 0 mps 736 mmHg 85%
    20:00 +10°C° 0 mm 1 mps 736 mmHg 85%
    21:00 +10°C° 0 mm 1 mps 736 mmHg 86%
    22:00 +9°C° 0 mm 1 mps 736 mmHg 87%
    23:00 +9°C° 0 mm 1 mps 736 mmHg 87%

    28 March, Tuesday

    Time Temperature Precipitation Wind Pressure Humidity
    00:00 +9°C° 0 mm 1 mps 736 mmHg 87%
    01:00 +9°C° 0 mm 1 mps 736 mmHg 86%
    02:00 +8°C° 0 mm 2 mps 736 mmHg 86%
    03:00 +7°C° 0 mm 2 mps 736 mmHg 86%
    04:00 +7°C° 0 mm 2 mps 736 mmHg 86%
    05:00 +8°C° 0 mm 2 mps 736 mmHg 82%
    06:00 +9°C° 0 mm 2 mps 737 mmHg 79%
    07:00 +10°C° 0 mm 2 mps 737 mmHg 76%
    08:00 +13°C° 0 mm 2 mps 737 mmHg 66%
    09:00 +15°C° 0 mm 2 mps 737 mmHg 57%
    10:00 +18°C° 0 mm 1 mps 737 mmHg 47%
    11:00 +17°C° 0 mm 2 mps 736 mmHg 46%
    12:00 +18°C° 0 mm 2 mps 736 mmHg 45%
    13:00 +18°C° 0 mm 2 mps 736 mmHg 45%
    14:00 +17°C° 0.3 mm 2 mps 736 mmHg 52%
    15:00 +16°C° 0.3 mm 2 mps 736 mmHg 60%
    16:00 +15°C° 0.3 mm 1 mps 736 mmHg 67%
    17:00 +14°C° 0.4 mm 1 mps 736 mmHg 73%
    18:00 +13°C° 0.4 mm 1 mps 736 mmHg 79%
    19:00 +12°C° 0.4 mm 1 mps 737 mmHg 85%
    20:00 +12°C° 0.6 mm 1 mps 737 mmHg 86%
    21:00 +12°C° 0.6 mm 1 mps 737 mmHg 87%
    22:00 +11°C° 0.6 mm 1 mps 737 mmHg 88%
    23:00 +11°C° 0.4 mm 1 mps 737 mmHg 88%
    Show more